SCP
0 -0 -0 -0 -0 -0 -0 -0 -0 0 0 0 0 0 0 0 0 0 0 0 0 0 0 0 -0 -0 -0 0 0 0 0 0
0 0 -0 -0 -0 -0 -0 -0 0 0 0 0 0 0 0 0 0 0 0 0 0 0 -0 -0 -0 -0 0 0 0 0 0 0
0 0 -0 -0 -0 -0 -0 -0 0 0 0 0 0 0 0 0 -0 0 0 0 0 0 -0 -0 -0 0 0 0 0 0 0 0
0 0 -0 -0 -0 -0 -0 0 0 0 0 0 0 0 -0 -0 -0 -0 0 -0 0 -0 -0 0 0 -0 0 -0 -0 -0 -0 -0
0 0 0 -0 -0 0 0 0 0 0 0 -0 -0 -0 -0 -0 0 0 0 0 0 0 0 -0 0 0 -0 -0 -0 -0 -0 -0
0 -0 -0 -0 0 -0 0 0 0 0 0 -0 -0 0 0 0 0 0 0 0 0 0 0 0 0 -0 -0 -0 0 -0 -0 -0
0 -0 -0 -0 -0 0 0 0 0 0 -0 -0 -0 0 0 0 0 0 0 0 0 0 0 0 -0 -0 -0 0 -0 -0 -0 -0
-0 0 -0 -0 -0 -0 0 -0 -0 -0 -0 -0 -0 -0 0 0 0 0 0 0 0 0 0 0 0 0 0 0 0 0 -0 0
0 0 -0 -0 0 0 0 0 -0 -0 -0 -0 -0 0 0 0 0 0 0 0 0 0 0 0 0 0 0 0 0 0 0 0
0 0 -0 -0 0 0 0 0 -0 -0 -0 -0 -0 0 0 0 0 0 0 0 0 0 0 0 0 0 0 0 0 -0 0 0
0 0 0 -0 -0 0 0 -0 -0 -0 -0 -0 -0 0 0 0 0 0 0 0 0 0 0 0 0 0 0 0 -0 -0 0 0
0 0 0 0 0 0 0 0 -0 -0 0 0 0 0 0 0 0 0 0 0 0 0 0 0 0 0 0 0 0 0 0 0
0 0 0 0 0 0 0 0 0 0 0 0 0 0 0 0 0 0 0 0 0 0 0 0 0 0 0 0 0 0 0 0
0 0 0 0 0 0 0 0 0 0 0 0 0 0 0 0 0 0 0 0 0 0 0 0 0 0 0 0 0 0 0 0
0 0 0 0 0 0 0 0 0 0 0 0 0 0 0 0 0 0 0 0 0 0 0 0 0 0 0 0 0 0 0 0
0 0 0 0 0 0 0 0 0 0 0 0 0 0 0 0 0 0 0 0 0 0 0 0 0 0 0 0 0 0 0 0
0 0 0 0 0 0 0 0 0 0 0 0 0 0 0 0 0 0 0 0 0 0 0 0 0 0 0 0 0 0 0 0
0 0 0 0 0 0 0 0 0 0 0 0 0 0 0 0 0 0 0 0 0 0 0 0 0 0 0 0 0 0 0 0
0 0 0 0 0 0 0 0 0 0 0 0 0 0 0 0 0 0 0 0 0 0 0 0 0 0 0 0 0 0 0 0
Wind_Speed_500mb
50 55 53 51 51 52 52 52 53 53 51 47 43 41 40 37 35 33 32 30 27 26 27 28 29 27 24 20 19 17 18 19
52 56 55 52 52 53 53 54 56 54 50 46 42 39 37 35 33 31 29 28 26 25 26 24 23 21 17 14 14 14 13 12
52 57 56 54 53 53 53 56 58 55 50 44 41 38 34 32 31 29 27 25 24 24 23 20 20 18 15 13 12 11 10 10
56 58 59 58 56 54 55 57 57 55 50 43 40 35 33 32 30 28 26 24 22 22 23 21 22 20 16 14 14 14 16 10
60 59 61 61 60 57 58 59 58 55 50 44 38 34 33 32 31 29 28 27 26 26 26 25 22 20 13 15 15 11 8 8
62 65 65 65 63 61 61 61 59 56 51 45 40 36 34 33 32 31 30 29 27 27 28 27 22 20 21 19 14 17 10 6
72 70 73 71 68 64 63 63 61 57 53 48 43 40 38 35 35 32 30 28 27 26 25 25 21 19 17 16 15 12 10 9
76 78 80 76 72 69 67 66 63 59 56 51 48 45 42 43 39 36 33 30 30 26 22 23 19 18 14 10 7 4 1 4
80 82 83 81 77 73 68 67 63 61 58 56 52 50 50 47 43 40 36 33 33 29 23 21 20 16 13 9 9 9 8 5
79 83 86 85 82 76 71 67 64 63 61 58 56 54 52 51 47 43 38 36 34 30 25 21 18 15 11 11 17 17 11 5
78 82 83 86 84 77 73 69 67 63 61 59 59 56 53 53 48 45 41 37 37 30 26 22 17 15 15 18 21 18 15 10
79 76 86 82 84 80 74 70 67 63 62 62 62 62 57 52 46 43 40 35 36 29 27 26 22 21 24 24 18 17 16 14
78 81 81 82 82 80 77 72 68 64 64 63 63 62 59 55 49 41 38 35 34 35 34 32 28 26 23 20 18 19 16 15
85 85 80 80 85 80 78 74 70 69 68 67 65 62 56 53 48 44 40 40 37 37 38 36 32 28 25 23 19 17 16 16
87 88 81 78 83 82 81 77 73 68 71 70 68 65 57 54 48 46 44 45 47 47 45 42 36 31 27 24 20 18 20 22
91 98 93 86 85 87 89 86 78 70 69 71 70 68 64 60 56 53 50 49 49 50 48 44 38 32 30 29 28 27 31 25
85 93 96 88 88 89 90 88 85 81 75 76 76 74 70 68 64 60 54 51 50 48 45 43 38 32 32 32 34 40 31 29
63 72 83 86 92 91 95 98 94 87 81 83 81 78 74 67 62 59 52 48 43 41 41 40 35 32 33 38 43 31 22 18
53 48 57 73 82 94 105 104 101 99 99 96 89 83 79 73 63 51 45 40 37 36 37 39 38 33 33 42 53 51 28 28
Wind_Direction_500mb
174 171 169 169 169 169 166 163 161 159 155 153 151 147 145 144 141 137 133 129 126 124 126 129 133 134 133 123 108 102 97 88
178 172 173 173 172 171 169 166 165 163 159 155 152 149 148 148 146 143 142 140 137 133 133 134 138 139 140 135 122 109 103 99
182 176 176 176 176 173 172 170 169 166 163 160 156 154 153 153 154 153 152 149 144 142 142 143 142 139 140 137 131 129 125 115
187 182 181 179 179 176 174 174 173 172 169 166 163 161 161 161 160 158 154 149 144 145 147 142 134 131 130 130 119 115 107 114
189 188 186 184 182 181 177 178 177 176 174 172 171 169 167 165 161 158 153 148 144 144 149 142 133 132 132 138 123 131 157 158
196 191 192 190 187 185 182 181 181 180 178 178 178 175 173 170 165 159 156 153 151 147 152 154 144 134 119 123 120 121 120 174
198 197 196 194 192 188 186 186 185 184 182 183 183 180 175 174 168 167 166 165 162 155 156 163 158 148 134 135 141 130 106 98
198 198 199 197 195 192 190 189 189 188 187 188 186 182 179 175 173 171 169 171 172 170 169 168 170 167 171 178 182 209 197 96
199 201 199 200 198 196 193 193 191 192 192 191 187 185 183 180 177 175 175 182 188 190 188 177 182 191 207 233 262 272 274 263
205 204 205 203 202 198 196 196 194 194 194 193 191 191 191 190 190 192 194 199 202 202 201 198 200 216 233 276 299 299 285 249
207 207 209 208 206 203 199 199 197 195 196 197 197 197 199 202 204 204 206 213 213 214 214 208 211 230 252 280 295 287 283 266
208 208 212 211 210 208 204 202 201 199 200 202 203 203 206 209 214 213 216 220 215 214 213 222 236 252 268 278 274 279 278 267
211 212 214 213 213 212 209 207 207 206 206 208 210 210 214 217 220 223 223 223 223 224 225 236 247 261 260 252 255 264 259 251
220 218 219 219 215 212 213 211 212 212 213 214 214 215 219 223 227 228 229 229 231 234 238 244 253 252 247 248 245 241 233 217
228 226 224 218 216 212 212 212 212 217 217 217 217 217 221 224 226 229 232 235 241 245 247 251 250 243 239 242 238 213 200 195
241 227 225 219 215 211 211 209 211 214 215 218 220 223 222 227 229 232 234 239 244 245 246 246 244 239 236 233 223 188 171 174
238 235 228 222 217 212 213 211 215 215 216 221 220 220 225 224 225 229 237 243 244 241 239 240 238 230 227 218 206 185 156 168
222 229 233 231 222 215 213 214 217 219 220 217 218 217 217 220 225 231 236 239 236 233 232 231 234 243 237 220 202 186 165 180
231 237 238 233 232 228 218 218 221 219 217 217 215 214 215 218 223 225 228 232 237 240 241 243 245 242 236 222 209 201 198 197
Wind_Speed_850mb
50 55 53 51 51 52 52 52 53 53 51 47 43 41 40 37 35 33 32 30 27 26 27 28 29 27 24 20 19 17 18 19
52 56 55 52 52 53 53 54 56 54 50 46 42 39 37 35 33 31 29 28 26 25 26 24 23 21 17 14 14 14 13 12
52 57 56 54 53 53 53 56 58 55 50 44 41 38 34 32 31 29 27 25 24 24 23 20 20 18 15 13 12 11 10 10
56 58 59 58 56 54 55 57 57 55 50 43 40 35 33 32 30 28 26 24 22 22 23 21 22 20 16 14 14 14 16 10
60 59 61 61 60 57 58 59 58 55 50 44 38 34 33 32 31 29 28 27 26 26 26 25 22 20 13 15 15 11 8 8
62 65 65 65 63 61 61 61 59 56 51 45 40 36 34 33 32 31 30 29 27 27 28 27 22 20 21 19 14 17 10 6
72 70 73 71 68 64 63 63 61 57 53 48 43 40 38 35 35 32 30 28 27 26 25 25 21 19 17 16 15 12 10 9
76 78 80 76 72 69 67 66 63 59 56 51 48 45 42 43 39 36 33 30 30 26 22 23 19 18 14 10 7 4 1 4
80 82 83 81 77 73 68 67 63 61 58 56 52 50 50 47 43 40 36 33 33 29 23 21 20 16 13 9 9 9 8 5
79 83 86 85 82 76 71 67 64 63 61 58 56 54 52 51 47 43 38 36 34 30 25 21 18 15 11 11 17 17 11 5
78 82 83 86 84 77 73 69 67 63 61 59 59 56 53 53 48 45 41 37 37 30 26 22 17 15 15 18 21 18 15 10
79 76 86 82 84 80 74 70 67 63 62 62 62 62 57 52 46 43 40 35 36 29 27 26 22 21 24 24 18 17 16 14
78 81 81 82 82 80 77 72 68 64 64 63 63 62 59 55 49 41 38 35 34 35 34 32 28 26 23 20 18 19 16 15
85 85 80 80 85 80 78 74 70 69 68 67 65 62 56 53 48 44 40 40 37 37 38 36 32 28 25 23 19 17 16 16
87 88 81 78 83 82 81 77 73 68 71 70 68 65 57 54 48 46 44 45 47 47 45 42 36 31 27 24 20 18 20 22
91 98 93 86 85 87 89 86 78 70 69 71 70 68 64 60 56 53 50 49 49 50 48 44 38 32 30 29 28 27 31 25
85 93 96 88 88 89 90 88 85 81 75 76 76 74 70 68 64 60 54 51 50 48 45 43 38 32 32 32 34 40 31 29
63 72 83 86 92 91 95 98 94 87 81 83 81 78 74 67 62 59 52 48 43 41 41 40 35 32 33 38 43 31 22 18
53 48 57 73 82 94 105 104 101 99 99 96 89 83 79 73 63 51 45 40 37 36 37 39 38 33 33 42 53 51 28 28
Wind_Direction_850mb
174 171 169 169 169 169 166 163 161 159 155 153 151 147 145 144 141 137 133 129 126 124 126 129 133 134 133 123 108 102 97 88
178 172 173 173 172 171 169 166 165 163 159 155 152 149 148 148 146 143 142 140 137 133 133 134 138 139 140 135 122 109 103 99
182 176 176 176 176 173 172 170 169 166 163 160 156 154 153 153 154 153 152 149 144 142 142 143 142 139 140 137 131 129 125 115
187 182 181 179 179 176 174 174 173 172 169 166 163 161 161 161 160 158 154 149 144 145 147 142 134 131 130 130 119 115 107 114
189 188 186 184 182 181 177 178 177 176 174 172 171 169 167 165 161 158 153 148 144 144 149 142 133 132 132 138 123 131 157 158
196 191 192 190 187 185 182 181 181 180 178 178 178 175 173 170 165 159 156 153 151 147 152 154 144 134 119 123 120 121 120 174
198 197 196 194 192 188 186 186 185 184 182 183 183 180 175 174 168 167 166 165 162 155 156 163 158 148 134 135 141 130 106 98
198 198 199 197 195 192 190 189 189 188 187 188 186 182 179 175 173 171 169 171 172 170 169 168 170 167 171 178 182 209 197 96
199 201 199 200 198 196 193 193 191 192 192 191 187 185 183 180 177 175 175 182 188 190 188 177 182 191 207 233 262 272 274 263
205 204 205 203 202 198 196 196 194 194 194 193 191 191 191 190 190 192 194 199 202 202 201 198 200 216 233 276 299 299 285 249
207 207 209 208 206 203 199 199 197 195 196 197 197 197 199 202 204 204 206 213 213 214 214 208 211 230 252 280 295 287 283 266
208 208 212 211 210 208 204 202 201 199 200 202 203 203 206 209 214 213 216 220 215 214 213 222 236 252 268 278 274 279 278 267
211 212 214 213 213 212 209 207 207 206 206 208 210 210 214 217 220 223 223 223 223 224 225 236 247 261 260 252 255 264 259 251
220 218 219 219 215 212 213 211 212 212 213 214 214 215 219 223 227 228 229 229 231 234 238 244 253 252 247 248 245 241 233 217
228 226 224 218 216 212 212 212 212 217 217 217 217 217 221 224 226 229 232 235 241 245 247 251 250 243 239 242 238 213 200 195
241 227 225 219 215 211 211 209 211 214 215 218 220 223 222 227 229 232 234 239 244 245 246 246 244 239 236 233 223 188 171 174
238 235 228 222 217 212 213 211 215 215 216 221 220 220 225 224 225 229 237 243 244 241 239 240 238 230 227 218 206 185 156 168
222 229 233 231 222 215 213 214 217 219 220 217 218 217 217 220 225 231 236 239 236 233 232 231 234 243 237 220 202 186 165 180
231 237 238 233 232 228 218 218 221 219 217 217 215 214 215 218 223 225 228 232 237 240 241 243 245 242 236 222 209 201 198 197